JST212 YMML-YPPH

Flight info

Callsign JST212
Flight time N/A
Altitude 38000
Route CRENA Q158 KABLI
Aircraft A20N/M-SDE2E3FGHIRWXY/LB1

Departure

Time 2026-05-01 12:00
Airport Melbourne Airport (YMML)

Arrival

Time N/A
Airport Perth International Airport (YPPH)
Time Latitude Longitude Altitude Speed Heading
2026-05-01 11:19 -37.66770 144.84728 409 ft 0 kts 250°
2026-05-01 11:38 -37.66768 144.84733 409 ft 0 kts 291°
2026-05-01 11:38 -37.66768 144.84736 409 ft 2 kts 315°
2026-05-01 11:39 -37.66773 144.84742 409 ft 0 kts 25°
2026-05-01 11:49 -37.66762 144.84748 404 ft 5 kts 25°
2026-05-01 11:49 -37.66718 144.84788 410 ft 9 kts 45°
2026-05-01 11:49 -37.66660 144.84797 407 ft 6 kts 345°
2026-05-01 11:50 -37.66638 144.84760 411 ft 6 kts 261°
2026-05-01 11:50 -37.66645 144.84689 412 ft 11 kts 263°
2026-05-01 11:50 -37.66657 144.84570 410 ft 16 kts 261°
2026-05-01 11:50 -37.66667 144.84472 409 ft 18 kts 263°
2026-05-01 11:51 -37.66692 144.84254 405 ft 15 kts 261°
2026-05-01 11:51 -37.66709 144.84109 402 ft 19 kts 262°
2026-05-01 11:51 -37.66739 144.83999 398 ft 14 kts 221°
2026-05-01 11:51 -37.66849 144.83994 396 ft 19 kts 174°
2026-05-01 11:52 -37.66943 144.84011 393 ft 22 kts 171°
2026-05-01 11:52 -37.67103 144.84042 388 ft 18 kts 171°
2026-05-01 11:52 -37.67193 144.84059 384 ft 20 kts 171°
2026-05-01 11:52 -37.67317 144.84082 380 ft 19 kts 172°
2026-05-01 11:53 -37.67455 144.84106 376 ft 16 kts 171°
2026-05-01 11:53 -37.67568 144.84129 372 ft 16 kts 171°
2026-05-01 11:53 -37.67673 144.84149 368 ft 14 kts 172°
2026-05-01 11:53 -37.67753 144.84163 366 ft 12 kts 171°
2026-05-01 11:54 -37.67835 144.84176 363 ft 8 kts 186°
2026-05-01 11:54 -37.67869 144.84125 364 ft 3 kts 254°
2026-05-01 11:54 -37.67870 144.84119 366 ft 0 kts 257°
2026-05-01 11:58 -37.67873 144.84106 364 ft 6 kts 257°
2026-05-01 11:58 -37.67810 144.83955 365 ft 13 kts 353°
2026-05-01 11:59 -37.67676 144.83933 369 ft 43 kts 352°
2026-05-01 11:59 -37.67157 144.83836 391 ft 105 kts 352°
2026-05-01 11:59 -37.66262 144.83669 411 ft 153 kts 352°
2026-05-01 12:00 -37.64119 144.83280 1635 ft 150 kts 354°
2026-05-01 12:00 -37.63119 144.83081 2386 ft 145 kts 355°
2026-05-01 12:00 -37.60932 144.82682 3244 ft 174 kts 355°
2026-05-01 12:01 -37.59713 144.82251 3566 ft 194 kts 339°
2026-05-01 12:01 -37.58553 144.81185 3807 ft 223 kts 317°
2026-05-01 12:01 -37.57816 144.79314 4061 ft 259 kts 286°
2026-05-01 12:01 -37.57925 144.76962 4582 ft 280 kts 256°
2026-05-01 12:02 -37.58933 144.74830 5283 ft 290 kts 229°
2026-05-01 12:02 -37.60546 144.73284 5965 ft 294 kts 214°
2026-05-01 12:02 -37.62317 144.71947 6600 ft 298 kts 214°
2026-05-01 12:02 -37.64026 144.70490 7333 ft 295 kts 227°
2026-05-01 12:03 -37.65187 144.68433 8143 ft 286 kts 253°
2026-05-01 12:03 -37.65531 144.66010 9025 ft 280 kts 275°
2026-05-01 12:03 -37.65340 144.63567 9934 ft 280 kts 282°
2026-05-01 12:03 -37.65015 144.61050 10545 ft 296 kts 282°
2026-05-01 12:04 -37.64711 144.58414 10835 ft 320 kts 280°
2026-05-01 12:04 -37.64454 144.55549 11295 ft 335 kts 278°
2026-05-01 12:04 -37.64242 144.52603 12058 ft 340 kts 277°
2026-05-01 12:04 -37.64048 144.49596 12811 ft 346 kts 277°
2026-05-01 12:05 -37.63856 144.46550 13566 ft 351 kts 277°
2026-05-01 12:05 -37.63463 144.40317 15018 ft 359 kts 277°
2026-05-01 12:05 -37.63260 144.37172 15750 ft 361 kts 278°
2026-05-01 12:06 -37.63056 144.34041 16458 ft 364 kts 278°
2026-05-01 12:06 -37.62846 144.30839 17159 ft 368 kts 278°
2026-05-01 12:06 -37.62631 144.27586 17878 ft 370 kts 278°
2026-05-01 12:06 -37.62416 144.24348 18547 ft 374 kts 278°
2026-05-01 12:07 -37.62197 144.21067 19147 ft 377 kts 278°
2026-05-01 12:07 -37.61976 144.17760 19734 ft 380 kts 278°
2026-05-01 12:07 -37.61753 144.14430 20317 ft 383 kts 278°
2026-05-01 12:07 -37.61526 144.11064 20901 ft 387 kts 278°
2026-05-01 12:08 -37.61296 144.07667 21493 ft 390 kts 278°
2026-05-01 12:08 -37.61064 144.04252 22058 ft 393 kts 278°
2026-05-01 12:08 -37.60829 144.00805 22628 ft 396 kts 279°
2026-05-01 12:08 -37.60591 143.97330 23203 ft 399 kts 279°
2026-05-01 12:09 -37.60350 143.93831 23774 ft 401 kts 279°
2026-05-01 12:09 -37.60108 143.90310 24249 ft 404 kts 279°
2026-05-01 12:09 -37.59862 143.86765 24731 ft 406 kts 279°
2026-05-01 12:09 -37.59613 143.83209 25194 ft 409 kts 279°
2026-05-01 12:10 -37.59362 143.79629 25646 ft 411 kts 279°
2026-05-01 12:10 -37.58853 143.72402 26514 ft 416 kts 278°
2026-05-01 12:10 -37.58594 143.68755 26937 ft 419 kts 278°
2026-05-01 12:11 -37.58072 143.61451 27761 ft 423 kts 278°
2026-05-01 12:11 -37.57805 143.57746 28132 ft 426 kts 278°
2026-05-01 12:11 -37.57536 143.54017 28513 ft 428 kts 278°
2026-05-01 12:12 -37.57264 143.50278 28897 ft 430 kts 278°
2026-05-01 12:12 -37.56989 143.46509 29259 ft 432 kts 278°
2026-05-01 12:12 -37.56713 143.42731 29601 ft 435 kts 278°
2026-05-01 12:12 -37.56433 143.38930 29934 ft 437 kts 278°
2026-05-01 12:13 -37.56149 143.35098 30276 ft 439 kts 278°
2026-05-01 12:13 -37.55864 143.31257 30580 ft 441 kts 278°
2026-05-01 12:13 -37.55577 143.27401 30900 ft 442 kts 278°
2026-05-01 12:13 -37.55286 143.23520 31206 ft 444 kts 278°
2026-05-01 12:14 -37.54995 143.19650 31569 ft 444 kts 278°
2026-05-01 12:14 -37.54704 143.15780 31981 ft 443 kts 279°
2026-05-01 12:14 -37.54411 143.11920 32371 ft 442 kts 279°
2026-05-01 12:14 -37.54119 143.08078 32764 ft 440 kts 279°
2026-05-01 12:15 -37.53829 143.04287 33156 ft 439 kts 279°
2026-05-01 12:15 -37.53531 143.00409 33534 ft 438 kts 279°
2026-05-01 12:15 -37.53237 142.96602 33894 ft 437 kts 279°
2026-05-01 12:15 -37.52941 142.92793 34242 ft 436 kts 279°
2026-05-01 12:16 -37.52646 142.88994 34553 ft 435 kts 279°
2026-05-01 12:16 -37.52350 142.85210 34857 ft 433 kts 279°
2026-05-01 12:16 -37.52057 142.81484 35153 ft 432 kts 279°
2026-05-01 12:16 -37.51760 142.77721 35440 ft 431 kts 279°
2026-05-01 12:17 -37.51463 142.73970 35716 ft 430 kts 279°
2026-05-01 12:17 -37.51162 142.70179 36003 ft 428 kts 279°
2026-05-01 12:17 -37.50869 142.66510 36263 ft 427 kts 279°
2026-05-01 12:17 -37.50571 142.62789 36531 ft 426 kts 279°
2026-05-01 12:18 -37.50274 142.59089 36762 ft 425 kts 279°
2026-05-01 12:18 -37.49974 142.55379 37010 ft 424 kts 279°
2026-05-01 12:18 -37.49675 142.51695 37246 ft 423 kts 279°
2026-05-01 12:18 -37.49376 142.48022 37467 ft 422 kts 279°
2026-05-01 12:19 -37.49076 142.44342 37686 ft 421 kts 279°
2026-05-01 12:19 -37.48776 142.40686 37894 ft 420 kts 279°
2026-05-01 12:19 -37.48475 142.37029 38105 ft 419 kts 279°
2026-05-01 12:19 -37.48173 142.33385 38138 ft 418 kts 279°
2026-05-01 12:20 -37.47568 142.26110 38133 ft 417 kts 279°
2026-05-01 12:20 -37.46962 142.18883 38130 ft 417 kts 279°
2026-05-01 12:21 -37.46347 142.11592 38128 ft 416 kts 280°
2026-05-01 12:21 -37.45735 142.04395 38122 ft 416 kts 280°
2026-05-01 12:22 -37.45114 141.97145 38129 ft 417 kts 280°
2026-05-01 12:22 -37.44488 141.89885 38128 ft 417 kts 280°
2026-05-01 12:23 -37.43859 141.82630 38127 ft 417 kts 280°
2026-05-01 12:23 -37.43226 141.75393 38117 ft 415 kts 280°
2026-05-01 12:24 -37.42590 141.68182 38100 ft 415 kts 280°
2026-05-01 12:24 -37.41949 141.60964 38103 ft 415 kts 280°
2026-05-01 12:25 -37.40984 141.50182 38093 ft 415 kts 280°
2026-05-01 12:26 -37.40333 141.42970 38099 ft 415 kts 280°
2026-05-01 12:26 -37.39348 141.32153 38102 ft 415 kts 280°
2026-05-01 12:27 -37.38354 141.21347 38087 ft 415 kts 281°
2026-05-01 12:28 -37.37350 141.10539 38078 ft 415 kts 281°
2026-05-01 12:29 -37.36335 140.99734 38073 ft 415 kts 281°
2026-05-01 12:29 -37.35311 140.88932 38065 ft 415 kts 281°
2026-05-01 12:30 -37.34279 140.78150 38058 ft 415 kts 281°
2026-05-01 12:31 -37.33584 140.70950 38054 ft 415 kts 281°
2026-05-01 12:31 -37.32886 140.63763 38053 ft 415 kts 281°
2026-05-01 12:32 -37.32182 140.56566 38047 ft 415 kts 281°
2026-05-01 12:32 -37.31240 140.46993 38044 ft 415 kts 281°
2026-05-01 12:33 -37.30524 140.39785 38033 ft 415 kts 281°
2026-05-01 12:33 -37.29688 140.31416 38042 ft 415 kts 281°
2026-05-01 12:34 -37.29082 140.25381 38026 ft 415 kts 281°
2026-05-01 12:34 -37.28358 140.18184 38027 ft 415 kts 282°
2026-05-01 12:35 -37.27634 140.11028 38028 ft 416 kts 282°
2026-05-01 12:35 -37.26701 140.03891 38020 ft 414 kts 285°
2026-05-01 12:36 -37.25668 139.96772 38018 ft 414 kts 284°
2026-05-01 12:36 -37.24649 139.89653 38016 ft 414 kts 284°
2026-05-01 12:37 -37.23617 139.82546 38017 ft 414 kts 285°
2026-05-01 12:37 -37.22575 139.75427 38007 ft 414 kts 285°
2026-05-01 12:38 -37.21528 139.68318 38007 ft 414 kts 285°
2026-05-01 12:38 -37.20479 139.61217 38001 ft 414 kts 285°
2026-05-01 12:39 -37.19424 139.54112 37995 ft 414 kts 285°
2026-05-01 12:39 -37.18366 139.47009 37992 ft 414 kts 285°
2026-05-01 12:40 -37.17301 139.39900 37986 ft 414 kts 285°
2026-05-01 12:40 -37.16241 139.32850 37986 ft 414 kts 285°
2026-05-01 12:41 -37.15173 139.25771 37978 ft 413 kts 285°
2026-05-01 12:41 -37.14099 139.18687 37973 ft 413 kts 285°
2026-05-01 12:42 -37.13020 139.11600 37976 ft 413 kts 285°
2026-05-01 12:42 -37.11941 139.04544 37972 ft 412 kts 286°
2026-05-01 12:43 -37.10857 138.97483 37968 ft 412 kts 286°
2026-05-01 12:43 -37.09778 138.90484 37963 ft 411 kts 286°
2026-05-01 12:44 -37.08690 138.83455 37957 ft 411 kts 286°
2026-05-01 12:45 -37.06504 138.69420 37938 ft 410 kts 286°
2026-05-01 12:45 -37.05408 138.62430 37935 ft 409 kts 286°
2026-05-01 12:46 -37.04309 138.55445 37936 ft 409 kts 286°
2026-05-01 12:46 -37.03211 138.48496 37923 ft 409 kts 287°
2026-05-01 12:47 -37.02105 138.41521 37925 ft 409 kts 287°
2026-05-01 12:47 -37.00993 138.34542 37915 ft 408 kts 287°
2026-05-01 12:48 -36.99880 138.27577 37922 ft 408 kts 287°
2026-05-01 12:48 -36.98761 138.20607 37910 ft 409 kts 287°
2026-05-01 12:49 -36.97636 138.13628 37910 ft 409 kts 287°
2026-05-01 12:49 -36.96509 138.06661 37909 ft 409 kts 287°
2026-05-01 12:50 -36.95378 137.99696 37908 ft 409 kts 287°
2026-05-01 12:50 -36.94242 137.92727 37903 ft 409 kts 287°
2026-05-01 12:51 -36.93101 137.85756 37905 ft 409 kts 287°
2026-05-01 12:52 -36.91391 137.75357 37904 ft 409 kts 287°
2026-05-01 12:52 -36.89664 137.64913 37899 ft 409 kts 287°
2026-05-01 12:53 -36.87926 137.54466 37889 ft 409 kts 287°
2026-05-01 12:54 -36.86764 137.47513 37888 ft 409 kts 287°
2026-05-01 12:54 -36.85010 137.37069 37887 ft 409 kts 287°
2026-05-01 12:55 -36.83253 137.26643 37879 ft 409 kts 287°
2026-05-01 12:56 -36.82070 137.19691 37884 ft 409 kts 287°
2026-05-01 12:56 -36.80892 137.12793 37885 ft 409 kts 287°
2026-05-01 12:57 -36.79705 137.05846 37890 ft 409 kts 287°
2026-05-01 12:57 -36.77916 136.95432 37889 ft 409 kts 287°
2026-05-01 12:58 -36.76726 136.88534 37892 ft 409 kts 287°
2026-05-01 12:59 -36.74924 136.78142 37889 ft 409 kts 287°
2026-05-01 12:59 -36.73112 136.67746 37887 ft 408 kts 287°
2026-05-01 13:00 -36.71300 136.57407 37887 ft 408 kts 288°
2026-05-01 13:01 -36.69477 136.47061 37887 ft 408 kts 288°
2026-05-01 13:02 -36.67640 136.36690 37880 ft 407 kts 288°
2026-05-01 13:07 -36.53947 135.61083 37845 ft 408 kts 288°
2026-05-01 13:08 -36.52673 135.54191 37847 ft 408 kts 288°
2026-05-01 13:08 -36.51398 135.47321 37850 ft 408 kts 288°
2026-05-01 13:09 -36.50126 135.40486 37846 ft 408 kts 288°
2026-05-01 13:09 -36.48843 135.33618 37839 ft 408 kts 288°
2026-05-01 13:10 -36.47559 135.26770 37844 ft 407 kts 288°
2026-05-01 13:10 -36.46269 135.19908 37850 ft 406 kts 288°
2026-05-01 13:11 -36.44984 135.13099 37848 ft 406 kts 289°
2026-05-01 13:11 -36.43687 135.06249 37843 ft 405 kts 289°
2026-05-01 13:12 -36.42405 134.99485 37843 ft 405 kts 288°
2026-05-01 13:12 -36.41331 134.92604 37836 ft 406 kts 285°
2026-05-01 13:13 -36.40351 134.85660 37833 ft 406 kts 286°
2026-05-01 13:13 -36.39346 134.78787 37826 ft 405 kts 286°
2026-05-01 13:14 -36.38323 134.71940 37817 ft 405 kts 286°
2026-05-01 13:14 -36.37286 134.65055 37813 ft 404 kts 286°
2026-05-01 13:15 -36.36253 134.58219 37807 ft 404 kts 286°
2026-05-01 13:15 -36.35215 134.51375 37805 ft 404 kts 287°
2026-05-01 13:16 -36.34173 134.44531 37804 ft 405 kts 287°
2026-05-01 13:16 -36.33123 134.37665 37806 ft 405 kts 287°
2026-05-01 13:17 -36.31186 134.25068 37806 ft 406 kts 287°
2026-05-01 13:18 -36.29588 134.14744 37818 ft 406 kts 287°
2026-05-01 13:18 -36.28522 134.07890 37815 ft 407 kts 287°
2026-05-01 13:19 -36.27445 134.00998 37821 ft 407 kts 287°
2026-05-01 13:20 -36.25821 133.90650 37815 ft 408 kts 287°
2026-05-01 13:20 -36.24734 133.83755 37805 ft 406 kts 287°
2026-05-01 13:21 -36.23104 133.73470 37793 ft 405 kts 287°
2026-05-01 13:21 -36.22015 133.66633 37798 ft 404 kts 287°
2026-05-01 13:22 -36.20929 133.59840 37790 ft 404 kts 287°
2026-05-01 13:22 -36.19837 133.53033 37790 ft 403 kts 287°
2026-05-01 13:23 -36.18741 133.46228 37794 ft 402 kts 287°
2026-05-01 13:23 -36.17645 133.39448 37787 ft 401 kts 287°
2026-05-01 13:24 -36.16544 133.32670 37784 ft 401 kts 287°
2026-05-01 13:25 -36.14899 133.22580 37776 ft 400 kts 288°
2026-05-01 13:25 -36.13796 133.15844 37769 ft 399 kts 288°
2026-05-01 13:26 -36.12690 133.09119 37771 ft 399 kts 288°
2026-05-01 13:26 -36.11580 133.02394 37768 ft 399 kts 288°
2026-05-01 13:27 -36.10466 132.95668 37766 ft 398 kts 288°
2026-05-01 13:27 -36.08790 132.85598 37768 ft 398 kts 288°
2026-05-01 13:28 -36.07106 132.75532 37762 ft 399 kts 288°
2026-05-01 13:29 -36.04852 132.62147 37763 ft 399 kts 288°
2026-05-01 13:31 -36.01429 132.41999 37760 ft 400 kts 288°
2026-05-01 13:32 -35.98546 132.25195 37762 ft 401 kts 288°
2026-05-01 13:33 -35.95631 132.08352 37766 ft 402 kts 289°
2026-05-01 13:34 -35.93270 131.94819 37759 ft 403 kts 289°
2026-05-01 13:35 -35.91488 131.84668 37755 ft 404 kts 289°
2026-05-01 13:36 -35.89695 131.74508 37752 ft 404 kts 289°
2026-05-01 13:36 -35.87898 131.64375 37746 ft 405 kts 289°
2026-05-01 13:37 -35.86684 131.57546 37735 ft 406 kts 289°
2026-05-01 13:37 -35.85473 131.50753 37737 ft 407 kts 289°
2026-05-01 13:38 -35.83627 131.40548 37740 ft 408 kts 289°
2026-05-01 13:39 -35.82386 131.33692 37744 ft 409 kts 289°
2026-05-01 13:39 -35.81150 131.26868 37743 ft 410 kts 289°
2026-05-01 13:40 -35.79899 131.19991 37749 ft 411 kts 289°
2026-05-01 13:40 -35.78645 131.13127 37755 ft 412 kts 289°
2026-05-01 13:41 -35.77384 131.06245 37759 ft 413 kts 289°
2026-05-01 13:41 -35.76120 130.99375 37765 ft 414 kts 289°
2026-05-01 13:42 -35.74842 130.92450 37771 ft 414 kts 289°
2026-05-01 13:42 -35.73564 130.85552 37779 ft 415 kts 289°
2026-05-01 13:43 -35.72274 130.78612 37782 ft 415 kts 289°
2026-05-01 13:43 -35.70988 130.71712 37782 ft 416 kts 289°
2026-05-01 13:44 -35.69692 130.64786 37785 ft 416 kts 289°
2026-05-01 13:44 -35.68388 130.57840 37791 ft 416 kts 289°
2026-05-01 13:45 -35.67086 130.50931 37794 ft 416 kts 289°
2026-05-01 13:45 -35.65775 130.43995 37794 ft 416 kts 289°
2026-05-01 13:46 -35.64463 130.37078 37797 ft 416 kts 289°
2026-05-01 13:46 -35.63138 130.30116 37803 ft 416 kts 288°
2026-05-01 13:47 -35.61823 130.23230 37804 ft 416 kts 288°
2026-05-01 13:47 -35.60497 130.16311 37808 ft 416 kts 288°
2026-05-01 13:48 -35.59163 130.09370 37811 ft 416 kts 288°
2026-05-01 13:48 -35.57832 130.02472 37814 ft 416 kts 288°
2026-05-01 13:49 -35.56490 129.95536 37814 ft 416 kts 288°
2026-05-01 13:49 -35.55156 129.88664 37818 ft 416 kts 288°
2026-05-01 13:50 -35.53809 129.81749 37822 ft 416 kts 288°
2026-05-01 13:50 -35.52458 129.74836 37821 ft 417 kts 288°
2026-05-01 13:51 -35.51098 129.67900 37822 ft 417 kts 288°
2026-05-01 13:51 -35.49743 129.61009 37827 ft 417 kts 288°
2026-05-01 13:52 -35.48374 129.54074 37827 ft 418 kts 288°
2026-05-01 13:52 -35.47001 129.47137 37829 ft 418 kts 288°
2026-05-01 13:53 -35.45625 129.40212 37825 ft 419 kts 288°
2026-05-01 13:53 -35.43551 129.29810 37834 ft 420 kts 287°
2026-05-01 13:54 -35.42160 129.22863 37834 ft 421 kts 287°
2026-05-01 13:54 -35.40757 129.15875 37843 ft 421 kts 287°
2026-05-01 13:55 -35.39350 129.08894 37845 ft 422 kts 287°
2026-05-01 13:55 -35.37936 129.01898 37849 ft 423 kts 287°
2026-05-01 13:56 -35.36520 128.94913 37856 ft 424 kts 287°
2026-05-01 13:56 -35.35098 128.87921 37859 ft 424 kts 287°
2026-05-01 13:57 -35.33907 128.82086 37865 ft 425 kts 287°
2026-05-01 13:57 -35.32228 128.73881 37870 ft 425 kts 287°
2026-05-01 13:58 -35.30785 128.66854 37873 ft 425 kts 287°
2026-05-01 13:58 -35.29337 128.59824 37874 ft 426 kts 287°
2026-05-01 13:59 -35.27886 128.52800 37877 ft 426 kts 287°
2026-05-01 13:59 -35.26439 128.45823 37875 ft 426 kts 286°
2026-05-01 14:00 -35.24979 128.38800 37880 ft 425 kts 286°
2026-05-01 14:00 -35.23515 128.31784 37880 ft 425 kts 286°
2026-05-01 14:01 -35.22051 128.24785 37879 ft 425 kts 286°
2026-05-01 14:01 -35.20580 128.17780 37875 ft 425 kts 286°
2026-05-01 14:02 -35.19355 128.11958 37886 ft 425 kts 286°
2026-05-01 14:02 -35.17882 128.04968 37886 ft 424 kts 286°
2026-05-01 14:03 -35.16153 127.96795 37879 ft 424 kts 286°
2026-05-01 14:03 -35.14665 127.89813 37881 ft 424 kts 286°
2026-05-01 14:04 -35.13431 127.84011 37881 ft 425 kts 286°
2026-05-01 14:04 -35.11945 127.77034 37884 ft 425 kts 286°
2026-05-01 14:05 -35.10452 127.70051 37886 ft 425 kts 286°
2026-05-01 14:05 -35.08961 127.63106 37884 ft 425 kts 285°
2026-05-01 14:06 -35.07459 127.56125 37893 ft 426 kts 285°
2026-05-01 14:06 -35.05949 127.49134 37897 ft 426 kts 285°
2026-05-01 14:07 -35.04434 127.42140 37902 ft 427 kts 285°
2026-05-01 14:08 -35.02151 127.31635 37909 ft 427 kts 285°
2026-05-01 14:08 -35.00620 127.24620 37912 ft 428 kts 285°
2026-05-01 14:09 -34.99084 127.17600 37915 ft 428 kts 285°
2026-05-01 14:09 -34.97543 127.10578 37927 ft 429 kts 285°
2026-05-01 14:10 -34.96004 127.03589 37924 ft 429 kts 285°
2026-05-01 14:10 -34.94451 126.96558 37919 ft 430 kts 285°
2026-05-01 14:11 -34.92893 126.89525 37932 ft 430 kts 284°
2026-05-01 14:11 -34.90550 126.78985 37932 ft 430 kts 284°
2026-05-01 14:12 -34.88981 126.71953 37932 ft 430 kts 284°
2026-05-01 14:12 -34.87410 126.64930 37931 ft 430 kts 284°
2026-05-01 14:13 -34.85835 126.57916 37941 ft 430 kts 284°
2026-05-01 14:13 -34.84256 126.50899 37931 ft 429 kts 284°
2026-05-01 14:14 -34.82675 126.43899 37930 ft 429 kts 284°
2026-05-01 14:14 -34.81090 126.36897 37937 ft 429 kts 284°
2026-05-01 14:15 -34.79501 126.29900 37937 ft 429 kts 284°
2026-05-01 14:15 -34.77911 126.22922 37935 ft 428 kts 284°
2026-05-01 14:16 -34.76316 126.15936 37934 ft 428 kts 284°
2026-05-01 14:16 -34.74727 126.09002 37934 ft 428 kts 284°
2026-05-01 14:17 -34.73125 126.02027 37946 ft 428 kts 283°
2026-05-01 14:17 -34.71521 125.95066 37939 ft 428 kts 283°
2026-05-01 14:18 -34.69912 125.88102 37939 ft 428 kts 283°
2026-05-01 14:18 -34.68574 125.82324 37943 ft 428 kts 283°
2026-05-01 14:19 -34.66686 125.74200 37945 ft 428 kts 283°
2026-05-01 14:19 -34.65067 125.67250 37944 ft 428 kts 283°
2026-05-01 14:20 -34.62629 125.56825 37941 ft 428 kts 283°
2026-05-01 14:21 -34.61008 125.49918 37949 ft 428 kts 283°
2026-05-01 14:21 -34.59374 125.42976 37955 ft 428 kts 283°
2026-05-01 14:22 -34.56917 125.32568 37959 ft 428 kts 283°
2026-05-01 14:22 -34.55271 125.25622 37964 ft 428 kts 283°
2026-05-01 14:23 -34.53621 125.18680 37966 ft 428 kts 282°
2026-05-01 14:23 -34.51967 125.11740 37970 ft 428 kts 282°
2026-05-01 14:24 -34.50312 125.04802 37970 ft 428 kts 282°
2026-05-01 14:24 -34.48655 124.97878 37979 ft 428 kts 282°
2026-05-01 14:25 -34.46981 124.90956 37976 ft 427 kts 282°
2026-05-01 14:25 -34.45324 124.84095 37979 ft 427 kts 282°
2026-05-01 14:26 -34.42822 124.73746 37994 ft 427 kts 282°
2026-05-01 14:27 -34.41148 124.66852 37991 ft 426 kts 282°
2026-05-01 14:27 -34.39468 124.59957 37994 ft 426 kts 282°
2026-05-01 14:28 -34.36949 124.49649 37993 ft 425 kts 282°
2026-05-01 14:28 -34.35265 124.42784 37997 ft 425 kts 282°
2026-05-01 14:29 -34.33578 124.35922 38003 ft 425 kts 282°
2026-05-01 14:30 -34.30213 124.22293 38001 ft 424 kts 282°
2026-05-01 14:31 -34.27676 124.12064 38010 ft 423 kts 282°
2026-05-01 14:31 -34.25980 124.05248 38014 ft 423 kts 282°
2026-05-01 14:32 -34.24284 123.98446 38014 ft 423 kts 282°
2026-05-01 14:32 -34.22583 123.91646 38021 ft 422 kts 282°
2026-05-01 14:33 -34.20880 123.84853 38023 ft 422 kts 282°
2026-05-01 14:33 -34.19173 123.78063 38026 ft 422 kts 282°
2026-05-01 14:34 -34.17464 123.71281 38035 ft 422 kts 282°
2026-05-01 14:34 -34.15751 123.64502 38036 ft 422 kts 282°
2026-05-01 14:35 -34.14033 123.57724 38037 ft 422 kts 282°
2026-05-01 14:35 -34.12317 123.50965 38046 ft 422 kts 282°
2026-05-01 14:36 -34.10606 123.44246 38048 ft 422 kts 282°
2026-05-01 14:36 -34.08877 123.37474 38054 ft 422 kts 282°
2026-05-01 14:37 -34.07147 123.30715 38053 ft 422 kts 282°
2026-05-01 14:37 -34.05412 123.23955 38061 ft 422 kts 282°
2026-05-01 14:38 -34.03673 123.17198 38054 ft 422 kts 282°
2026-05-01 14:38 -34.01928 123.10431 38056 ft 423 kts 282°
2026-05-01 14:39 -34.00177 123.03662 38059 ft 424 kts 282°
2026-05-01 14:39 -33.98419 122.96881 38063 ft 424 kts 282°
2026-05-01 14:40 -33.96662 122.90123 38067 ft 425 kts 282°
2026-05-01 14:40 -33.94880 122.83285 38074 ft 426 kts 282°
2026-05-01 14:41 -33.93111 122.76512 38079 ft 427 kts 282°
2026-05-01 14:41 -33.91324 122.69692 38083 ft 428 kts 282°
2026-05-01 14:42 -33.89526 122.62846 38086 ft 429 kts 282°
2026-05-01 14:42 -33.87723 122.55996 38097 ft 430 kts 282°
2026-05-01 14:43 -33.85913 122.49136 38105 ft 431 kts 282°
2026-05-01 14:43 -33.84094 122.42260 38110 ft 432 kts 282°
2026-05-01 14:44 -33.82266 122.35372 38106 ft 430 kts 281°
2026-05-01 14:44 -33.79546 122.25150 38109 ft 430 kts 281°
2026-05-01 14:45 -33.76808 122.14902 38113 ft 429 kts 281°
2026-05-01 14:46 -33.74978 122.08074 38115 ft 428 kts 281°
2026-05-01 14:46 -33.72233 121.97859 38124 ft 428 kts 281°
2026-05-01 14:47 -33.70404 121.91073 38129 ft 427 kts 281°
2026-05-01 14:48 -33.67619 121.80916 38135 ft 428 kts 283°
2026-05-01 14:48 -33.64627 121.70830 38142 ft 426 kts 282°
2026-05-01 14:49 -33.61010 121.58574 38157 ft 425 kts 282°
2026-05-01 14:50 -33.56719 121.44166 38161 ft 423 kts 282°
2026-05-01 14:51 -33.54070 121.35308 38159 ft 421 kts 282°
2026-05-01 14:52 -33.50778 121.24333 38161 ft 420 kts 282°
2026-05-01 14:53 -33.48148 121.15593 38161 ft 419 kts 282°
2026-05-01 14:53 -33.46170 121.09037 38163 ft 418 kts 282°
2026-05-01 14:54 -33.44193 121.02501 38166 ft 417 kts 282°
2026-05-01 14:54 -33.42213 120.95969 38180 ft 417 kts 282°
2026-05-01 14:55 -33.40230 120.89438 38186 ft 417 kts 282°
2026-05-01 14:55 -33.38243 120.82910 38178 ft 417 kts 282°
2026-05-01 14:56 -33.36253 120.76386 38182 ft 418 kts 282°
2026-05-01 14:56 -33.34258 120.69859 38187 ft 418 kts 282°
2026-05-01 14:57 -33.32258 120.63330 38194 ft 418 kts 282°
2026-05-01 14:57 -33.29257 120.53558 38205 ft 419 kts 282°
2026-05-01 14:58 -33.27255 120.47057 38213 ft 420 kts 282°
2026-05-01 14:58 -33.25234 120.40511 38218 ft 420 kts 282°
2026-05-01 14:59 -33.23208 120.33962 38222 ft 420 kts 282°
2026-05-01 14:59 -33.21175 120.27405 38227 ft 421 kts 282°
2026-05-01 15:00 -33.18118 120.17569 38233 ft 421 kts 283°
2026-05-01 15:01 -33.16075 120.11014 38238 ft 421 kts 283°
2026-05-01 15:01 -33.14029 120.04463 38245 ft 421 kts 283°
2026-05-01 15:02 -33.11977 119.97910 38238 ft 421 kts 283°
2026-05-01 15:02 -33.09920 119.91354 38238 ft 421 kts 283°
2026-05-01 15:03 -33.07864 119.84811 38236 ft 422 kts 283°
2026-05-01 15:03 -33.05799 119.78255 38240 ft 422 kts 283°
2026-05-01 15:04 -33.03732 119.71709 38240 ft 422 kts 283°
2026-05-01 15:04 -33.01659 119.65157 38243 ft 423 kts 283°
2026-05-01 15:05 -32.99582 119.58599 38246 ft 423 kts 283°
2026-05-01 15:05 -32.97496 119.52039 38250 ft 424 kts 283°
2026-05-01 15:06 -32.95399 119.45463 38251 ft 425 kts 283°
2026-05-01 15:06 -32.93312 119.38922 38259 ft 426 kts 283°
2026-05-01 15:07 -32.91205 119.32333 38263 ft 426 kts 283°
2026-05-01 15:07 -32.89089 119.25733 38265 ft 427 kts 283°
2026-05-01 15:08 -32.86965 119.19121 38274 ft 428 kts 284°
2026-05-01 15:08 -32.84836 119.12507 38275 ft 428 kts 284°
2026-05-01 15:09 -32.82703 119.05894 38266 ft 429 kts 284°
2026-05-01 15:09 -32.80559 118.99260 38274 ft 430 kts 284°
2026-05-01 15:10 -32.78404 118.92609 38280 ft 431 kts 284°
2026-05-01 15:10 -32.75166 118.82639 38286 ft 432 kts 284°
2026-05-01 15:11 -32.71907 118.72638 38294 ft 433 kts 284°
2026-05-01 15:12 -32.69725 118.65958 38292 ft 434 kts 284°
2026-05-01 15:12 -32.66444 118.55942 38291 ft 435 kts 284°
2026-05-01 15:14 -32.60957 118.39262 38286 ft 435 kts 284°
2026-05-01 15:14 -32.57640 118.29220 38293 ft 436 kts 284°
2026-05-01 15:15 -32.53199 118.15821 38292 ft 437 kts 284°
2026-05-01 15:16 -32.48733 118.02407 38298 ft 438 kts 285°
2026-05-01 15:18 -32.43129 117.85659 37591 ft 436 kts 285°
2026-05-01 15:18 -32.42002 117.82306 36633 ft 435 kts 284°
2026-05-01 15:19 -32.38590 117.72144 33185 ft 459 kts 283°
2026-05-01 15:19 -32.36219 117.64888 32733 ft 473 kts 280°
2026-05-01 15:19 -32.35310 117.61224 32587 ft 456 kts 278°
2026-05-01 15:20 -32.33620 117.54168 31101 ft 442 kts 277°
2026-05-01 15:20 -32.32790 117.50672 30059 ft 440 kts 278°
2026-05-01 15:20 -32.31962 117.47212 29087 ft 434 kts 278°
2026-05-01 15:21 -32.31143 117.43804 28162 ft 428 kts 278°
2026-05-01 15:21 -32.30333 117.40441 27266 ft 423 kts 278°
2026-05-01 15:21 -32.29532 117.37111 26654 ft 419 kts 279°
2026-05-01 15:21 -32.28737 117.33814 26071 ft 415 kts 279°
2026-05-01 15:22 -32.27164 117.27302 24914 ft 408 kts 279°
2026-05-01 15:22 -32.26385 117.24087 24337 ft 405 kts 279°
2026-05-01 15:22 -32.25615 117.20910 23776 ft 402 kts 279°
2026-05-01 15:23 -32.24846 117.17751 23154 ft 397 kts 279°
2026-05-01 15:23 -32.24085 117.14628 22533 ft 393 kts 279°
2026-05-01 15:23 -32.23331 117.11539 21934 ft 390 kts 279°
2026-05-01 15:23 -32.22583 117.08476 21348 ft 386 kts 279°
2026-05-01 15:24 -32.21841 117.05442 20768 ft 383 kts 279°
2026-05-01 15:24 -32.21108 117.02443 20214 ft 379 kts 279°
2026-05-01 15:24 -32.20377 116.99460 19667 ft 376 kts 279°
2026-05-01 15:24 -32.19654 116.96510 19113 ft 373 kts 279°
2026-05-01 15:25 -32.18933 116.93579 18583 ft 370 kts 280°
2026-05-01 15:25 -32.18008 116.90733 17963 ft 374 kts 288°
2026-05-01 15:25 -32.16722 116.88041 17336 ft 379 kts 297°
2026-05-01 15:25 -32.15124 116.85549 16745 ft 381 kts 301°
2026-05-01 15:26 -32.13491 116.83109 16150 ft 378 kts 301°
2026-05-01 15:26 -32.11873 116.80672 15589 ft 376 kts 301°
2026-05-01 15:26 -32.10266 116.78246 15030 ft 374 kts 301°
2026-05-01 15:26 -32.08666 116.75830 14487 ft 372 kts 302°
2026-05-01 15:27 -32.07073 116.73428 13940 ft 371 kts 302°
2026-05-01 15:27 -32.05489 116.71043 13395 ft 368 kts 302°
2026-05-01 15:27 -32.03922 116.68684 12851 ft 365 kts 302°
2026-05-01 15:28 -32.00814 116.64008 11777 ft 360 kts 303°
2026-05-01 15:28 -31.99275 116.61694 11275 ft 357 kts 303°
2026-05-01 15:28 -31.97764 116.59425 10795 ft 355 kts 303°
2026-05-01 15:29 -31.94784 116.54943 10226 ft 335 kts 301°
2026-05-01 15:29 -31.93567 116.52687 10082 ft 318 kts 295°
2026-05-01 15:29 -31.91387 116.48403 9352 ft 297 kts 296°
2026-05-01 15:30 -31.89618 116.44932 8590 ft 293 kts 296°
2026-05-01 15:31 -31.85159 116.36224 6991 ft 284 kts 298°
2026-05-01 15:31 -31.83137 116.32282 6246 ft 280 kts 298°
2026-05-01 15:32 -31.81456 116.29012 5577 ft 278 kts 299°
2026-05-01 15:32 -31.79508 116.25130 4829 ft 273 kts 293°
2026-05-01 15:33 -31.77979 116.19138 4412 ft 235 kts 283°
2026-05-01 15:34 -31.77459 116.16936 4281 ft 219 kts 283°